This is the latest recevied weather packets stored in our database for station/object WC4PEM-14. If no packets are shown the sender has not sent any weather packets the latest 1 day(s).
| Time | Temp. | Humidity | Pressure | Rain* | Wind** | Luminosity | Snow |
|---|---|---|---|---|---|---|---|
| 1778037484 | 22.78° C | 70% | 1016.1 hPa | 0 mm | 1.34 m/s, 101° | - | - |
| 1778037184 | 22.78° C | 70% | 1016.2 hPa | 0 mm | 1.34 m/s, 93° | - | - |
| 1778036957 | 22.78° C | 70% | 1016.2 hPa | 0 mm | 1.34 m/s, 111° | - | - |
| 1778036897 | 22.78° C | 70% | 1016.2 hPa | 0 mm | 1.34 m/s, 111° | - | - |
| 1778036592 | 22.78° C | 69% | 1016.3 hPa | 0 mm | 1.34 m/s, 104° | - | - |
| 1778036584 | 22.78° C | 70% | 1016.2 hPa | 0 mm | 1.34 m/s, 76° | - | - |
| 1778036284 | 22.78° C | 69% | 1016.3 hPa | 0 mm | 1.34 m/s, 104° | - | - |
| 1778036192 | 22.78° C | 69% | 1016.1 hPa | 0 mm | 1.34 m/s, 126° | - | - |
| 1778035984 | 22.78° C | 69% | 1016.1 hPa | 0 mm | 1.34 m/s, 126° | - | - |
| 1778035684 | 22.78° C | 69% | 1016 hPa | 0 mm | 1.34 m/s, 93° | - | - |
| 1778035384 | 22.78° C | 69% | 1015.9 hPa | 0 mm | 1.34 m/s, 93° | - | - |
| 1778035295 | 22.78° C | 68% | 1015.9 hPa | 0 mm | 1.34 m/s, 99° | - | - |
| 1778035084 | 22.78° C | 68% | 1015.9 hPa | 0 mm | 1.34 m/s, 99° | - | - |
| 1778034784 | 23.33° C | 68% | 1016 hPa | 0 mm | 1.34 m/s, 34° | - | - |
| 1778034484 | 23.33° C | 68% | 1016 hPa | 0 mm | 1.34 m/s, 99° | - | - |
| 1778034184 | 23.33° C | 68% | 1015.9 hPa | 0 mm | 1.34 m/s, 101° | - | - |
| 1778034032 | 23.33° C | 67% | 1015.9 hPa | 0 mm | 1.34 m/s, 99° | - | - |
| 1778033884 | 23.33° C | 67% | 1015.8 hPa | 0 mm | 1.34 m/s, 100° | - | - |
| 1778033584 | 23.33° C | 67% | 1015.9 hPa | 0 mm | 1.34 m/s, 99° | - | - |
| 1778033284 | 23.33° C | 66% | 1015.8 hPa | 0 mm | 1.79 m/s, 97° | - | - |
| 1778032984 | 23.33° C | 66% | 1015.9 hPa | 0 mm | 1.79 m/s, 93° | - | - |
| 1778032684 | 23.33° C | 66% | 1015.7 hPa | 0 mm | 2.24 m/s, 97° | - | - |
| 1778032384 | 23.33° C | 66% | 1015.6 hPa | 0 mm | 2.24 m/s, 93° | - | - |
| 1778032084 | 23.89° C | 65% | 1015.5 hPa | 0 mm | 2.24 m/s, 97° | - | - |
| 1778032037 | 23.89° C | 65% | 1015.4 hPa | 0 mm | 2.24 m/s, 98° | - | - |
* Rain latest hour (hover to see other rain measurements)
** Current wind speed in m/s (hover to see current wind gust speed)